Flag for Thailand Weather past 2 weeks in Khon Kaen, Thailand

Now
75 °F

Mostly cloudy.


Feels Like: 74 °F
Forecast: 74 / 83 °F
Wind: 1 mph from North

Location: Khon Kaen Airport

Current Time: Aug 29, 2014 at 11:05:57 PM

Latest Report: Aug 29, 2014 at 10:00 PM


Visibility: N/A

Pressure: 29.86 "Hg

Humidity: 94%

Dew point: 73 °F

Location of Khon KaenLocation

Historic Weather in Khon Kaen — Graph

°F

Khon Kaen temperature yesterday

Maximum temperature yesterday: 84 °F (at 12:00 PM)
Minimum temperature yesterday: 75 °F (at 5:00 AM)
Average temperature yesterday: 80 °F

Past Weeks' High & Low Weather Summary

 TemperatureHumidityPressure
High95 °F (Aug 17, 4:00 PM)100% (Aug 27, 3:00 AM)29.89 "Hg (Aug 27, 3:00 AM)
Low73 °F (Aug 19, 5:00 PM)41% (Aug 17, 4:00 PM)29.65 "Hg (Aug 25, 4:00 PM)
Average82 °F80%29.78 "Hg
* Reported Aug 14 9:00 PM — Aug 29 9:00 PM, Khon Kaen, Weather by CustomWeather, © 2014

Note: Actual official high and low records may vary slightly from our data, if they occured in-between our weather recording intervals... More about our weather records

Advertising

Khon Kaen weather history for previous 24 hours

 ConditionsComfort  
Time TempWeatherWind HumidityBarometerVisibility
9:00 PM
Aug 29
75 °FThunderstorms. Mostly cloudy.3 mph94%29.83 "Hg5 mi
8:30 PM77 °FThunderstorms. Mostly cloudy.3 mph89%29.80 "Hg5 mi
8:00 PM77 °FThunderstorms. Mostly cloudy.6 mph89%29.80 "Hg3 mi
7:00 PM79 °FMostly cloudy.2 mph94%29.77 "HgN/A
6:00 PM81 °FMore clouds than sun.No wind89%29.74 "HgN/A
5:00 PM82 °FMore clouds than sun.2 mph79%29.71 "HgN/A
4:00 PM81 °FMore clouds than sun.2 mph84%29.71 "HgN/A
3:00 PM75 °FRain. Cloudy.5 mph94%29.71 "Hg4 mi
2:00 PM88 °FBroken clouds.3 mph62%29.71 "HgN/A
1:00 PM86 °FBroken clouds.2 mph66%29.74 "HgN/A
12:00 PM82 °FBroken clouds.6 mph74%29.77 "HgN/A
11:00 AM82 °FMore clouds than sun.6 mph74%29.80 "HgN/A
10:00 AM81 °FBroken clouds.5 mph79%29.80 "HgN/A
9:00 AM79 °FBroken clouds.5 mph84%29.77 "HgN/A
8:00 AM77 °FPartly sunny.5 mph89%29.77 "HgN/A
7:00 AM75 °FMostly cloudy.No wind94%29.74 "HgN/A
6:00 AM75 °FBroken clouds.3 mph94%29.74 "HgN/A
5:00 AM75 °FPassing clouds.5 mph94%29.71 "HgN/A
4:00 AM75 °FPassing clouds.2 mph94%29.71 "HgN/A
3:00 AM75 °FPassing clouds.3 mph94%29.71 "HgN/A
2:00 AM75 °FPassing clouds.3 mph94%29.71 "HgN/A
1:00 AM77 °FPassing clouds.5 mph89%29.74 "HgN/A
12:00 AM79 °FPartly cloudy.8 mph84%29.74 "HgN/A
11:00 PM
Aug 28
79 °FPartly cloudy.3 mph89%29.77 "HgN/A
Weather by CustomWeather, © 2014

See weather overviewHow to use our weather pages